Weather History for EGNH - December, 2013

Change the Weather History Date:

Monday, December 9, 2013

  Actual Average Record
Temperature  
Mean Temperature 49 °F -  
Max Temperature 52 °F 43 °F 52 °F (2013)
Min Temperature 46 °F 37 °F 28 °F (2001)
Degree Days  
Heating Degree Days 16    
Moisture  
Dew Point 46 °F    
Average Humidity 90    
Maximum Humidity 100    
Minimum Humidity 74    
Precipitation  
Precipitation 0.00 in - - ()
Sea Level Pressure  
Sea Level Pressure 30.27 in    
Wind  
Wind Speed 13 mph ()    
Max Wind Speed 22 mph    
Max Gust Speed -    
Visibility 5.9 miles    
Events      
Averages and records for this station are not official NWS values.
T = Trace of Precipitation, MM = Missing Value Source: Averaged Metar Reports

Daily Weather History Graph

Daily Weather History Graph

Search for Another Location

Airport or City:

Trip Planner

Search our weather history database for the weather conditions in past years. The results will help you decide how hot, cold, wet, or windy it might be!

Date:

Astronomy

Dec. 09, 2013 Rise Set
Actual Time 8:17 AM GMT 3:51 PM GMT
Civil Twilight 7:34 AM GMT 4:34 PM GMT
Nautical Twilight 6:49 AM GMT 5:19 PM GMT
Astronomical Twilight 6:06 AM GMT 6:02 PM GMT
Moon 12:12 PM GMT (12/9) No Moon Set
Length of Visible Light 8h 59m
Length of Day
7h 33m
Waxing Crescent, 48% of the Moon is Illuminated
Dec 9
Waxing Crescent
Dec 9
First Quarter
Dec 17
Full
Dec 25
Last Quarter
Jan 1
New

Hourly Weather History & Observations

Time (GMT) Temp. Windchill Dew Point Humidity Pressure Visibility Wind Dir Wind Speed Gust Speed Precip Events Conditions
12:00 AM 50 °F - 47 °F 86%  in - SW 19.6 mph - -  
3:00 AM 50 °F - 47 °F 86%  in - WSW 21.9 mph - -  
6:00 AM 49 °F - 47 °F 90%  in - WSW 18.4 mph - -  
6:20 AM 48.2 °F - 48.2 °F 100% 30.21 in 5.0 mi SW 13.8 mph - N/A   Scattered Clouds
6:50 AM 48.2 °F - 48.2 °F 100% 30.21 in 5.0 mi SW 15.0 mph - N/A   Scattered Clouds
7:20 AM 48.2 °F - 48.2 °F 100% 30.21 in 5.0 mi SW 19.6 mph - N/A   Scattered Clouds
7:50 AM 50.0 °F - 48.2 °F 94% 30.21 in 5.0 mi SW 20.7 mph - N/A   Scattered Clouds
8:20 AM 48.2 °F - 48.2 °F 100% 30.24 in 5.0 mi SW 17.3 mph - N/A   Partly Cloudy
8:50 AM 48.2 °F - 48.2 °F 100% 30.24 in 5.0 mi SW 17.3 mph - N/A   Partly Cloudy
9:00 AM 49 °F - 47 °F 92%  in - WSW 18.4 mph - -  
9:20 AM 48.2 °F - 48.2 °F 100% 30.27 in 6.2 mi SW 15.0 mph - N/A   Partly Cloudy
9:50 AM 48.2 °F - 48.2 °F 100% 30.27 in 6.2 mi SW 12.7 mph - N/A   Partly Cloudy
10:20 AM 48.2 °F - 48.2 °F 100% 30.27 in - SW 12.7 mph - N/A   Clear
10:50 AM 48.2 °F - 48.2 °F 100% 30.27 in - SW 11.5 mph - N/A   Clear
11:20 AM 48.2 °F - 48.2 °F 100% 30.27 in 6.2 mi SSW 10.4 mph - N/A   Scattered Clouds
11:50 AM 50.0 °F - 48.2 °F 94% 30.27 in 6.2 mi SW 11.5 mph - N/A   Scattered Clouds
12:00 PM 50 °F - 47 °F 85%  in - WSW 13.8 mph - -  
12:20 PM 50.0 °F - 48.2 °F 94% 30.27 in 6.2 mi SW 8.1 mph - N/A   Scattered Clouds
12:50 PM 50.0 °F - 48.2 °F 94% 30.27 in 6.2 mi South 8.1 mph - N/A   Partly Cloudy
1:20 PM 51.8 °F - 48.2 °F 88% 30.27 in 6.2 mi South 9.2 mph - N/A   Scattered Clouds
1:50 PM 51.8 °F - 48.2 °F 88% 30.27 in 6.2 mi South 8.1 mph - N/A   Scattered Clouds
2:20 PM 50.0 °F - 46.4 °F 87% 30.27 in 6.2 mi South 8.1 mph - N/A   Scattered Clouds
2:50 PM 50.0 °F - 46.4 °F 87% 30.27 in 6.2 mi Variable 3.5 mph - N/A   Mostly Cloudy
3:00 PM 50 °F - 46 °F 83%  in - South 4.6 mph - -  
3:20 PM 50.0 °F - 46.4 °F 87% 30.27 in 6.2 mi SSE 6.9 mph - N/A   Mostly Cloudy
3:50 PM 50.0 °F - 46.4 °F 87% 30.27 in 6.2 mi SSE 5.8 mph - N/A   Mostly Cloudy
4:20 PM 48.2 °F - 44.6 °F 87% 30.27 in 6.2 mi South 5.8 mph - N/A   Mostly Cloudy
4:50 PM 48.2 °F - 46.4 °F 93% 30.27 in 6.2 mi South 6.9 mph - N/A   Mostly Cloudy
5:20 PM 50.0 °F - 46.4 °F 87% 30.30 in 6.2 mi South 11.5 mph - N/A   Mostly Cloudy
5:50 PM 50.0 °F - 44.6 °F 82% 30.30 in 6.2 mi SSW 12.7 mph - N/A   Mostly Cloudy
6:00 PM 50 °F - 44 °F 74%  in - SSW 12.7 mph - -  
6:20 PM 50.0 °F - 44.6 °F 82% 30.30 in 6.2 mi South 10.4 mph - N/A   Mostly Cloudy
6:50 PM 50.0 °F - 44.6 °F 82% 30.30 in 6.2 mi SSW 15.0 mph - N/A   Mostly Cloudy
7:20 PM 48.2 °F - 44.6 °F 87% 30.30 in 6.2 mi SSW 11.5 mph - N/A   Mostly Cloudy
7:50 PM 46.4 °F 40.7 °F 42.8 °F 87% 30.30 in 6.2 mi South 12.7 mph - N/A   Partly Cloudy
8:20 PM 46.4 °F 41.1 °F 42.8 °F 87% 30.30 in 6.2 mi South 11.5 mph - N/A   Partly Cloudy
8:50 PM 46.4 °F 41.5 °F 41.0 °F 81% 30.30 in 6.2 mi South 10.4 mph - N/A   Partly Cloudy
9:00 PM 46 °F - 41 °F 76%  in - South 10.4 mph - -